Wind_Speed
34 33 33 32 30 28 27 26 24 24 25 24 22 23 22 21 19 19 20 20 21 21 19 18 17 15 14 14 14 15 15 12 8 6 6 7 9 12 13 13 11 11
34 33 32 31 30 29 28 26 24 24 25 25 23 22 21 20 19 20 21 22 21 21 19 18 18 16 17 17 16 16 16 13 10 8 8 7 6 6 7 8 8 7
33 31 31 30 31 30 28 27 25 23 25 26 23 22 21 20 21 22 22 22 22 21 20 19 19 17 17 17 17 18 18 16 14 11 10 10 9 7 7 6 7 7
32 31 31 30 30 29 28 27 25 23 25 26 24 23 22 21 23 23 23 23 23 22 21 21 19 18 18 17 16 17 18 16 14 12 11 10 10 10 9 9 9 9
33 32 31 30 29 29 28 28 27 24 24 24 23 23 23 24 25 25 24 24 24 23 22 21 20 19 18 18 17 17 16 14 12 11 12 12 11 11 10 9 9 8
33 32 31 31 29 29 29 30 29 26 23 22 22 24 24 25 26 27 26 25 25 25 24 23 22 20 19 20 20 17 14 13 12 12 12 11 10 9 9 8 8 8
33 33 32 31 30 29 30 30 29 27 25 23 22 23 24 24 26 26 25 25 25 25 25 23 22 21 20 20 21 18 15 14 14 13 12 11 9 8 7 8 9 10
34 33 32 32 31 31 30 30 29 28 26 24 24 25 23 21 23 26 24 22 23 23 23 23 22 21 21 21 20 19 17 17 16 14 12 11 10 9 9 9 10 10
34 33 32 32 32 32 31 30 28 26 25 24 21 18 16 14 15 20 23 22 21 23 23 23 22 20 20 22 21 20 19 18 16 15 14 12 11 10 10 10 10 11
34 32 32 32 32 32 30 28 28 28 23 14 5 1 3 7 8 14 20 24 24 23 24 25 23 20 19 21 21 20 19 18 16 14 13 12 11 11 11 11 11 11
34 32 31 31 32 30 28 28 27 17 4 11 9 3 3 9 13 16 18 23 25 23 24 24 22 19 18 19 19 18 17 16 15 13 12 11 11 11 11 11 11 10
33 32 31 31 30 27 26 24 16 8 13 12 3 5 8 15 20 17 16 20 23 22 22 22 21 20 19 18 17 16 16 14 13 11 10 10 9 9 9 9 7 7
34 32 31 30 27 24 21 17 11 9 9 10 11 11 13 17 19 17 15 18 20 20 21 21 20 18 16 15 14 14 13 12 10 9 8 7 7 6 5 5 4 4
34 32 30 28 23 20 17 14 12 11 14 17 16 14 13 15 19 19 17 15 16 17 18 18 18 16 14 14 14 13 11 10 8 7 6 5 4 4 4 4 3 3
31 27 25 23 19 17 17 16 16 17 16 17 17 15 13 16 20 21 19 16 14 14 15 16 15 14 14 14 13 11 9 8 6 6 6 5 5 5 5 4 4 3
24 20 19 17 16 17 18 19 20 20 18 18 18 16 16 19 20 20 18 16 15 14 14 13 11 11 12 11 10 9 8 8 8 8 7 7 7 6 6 5 5 4
15 13 13 15 17 18 19 21 21 20 19 20 20 18 19 20 21 21 19 16 15 14 13 12 11 11 11 9 9 9 9 10 11 10 9 9 8 8 8 8 7 7
14 13 12 14 17 20 21 21 21 19 19 19 20 21 22 22 22 21 19 17 15 14 13 12 12 11 10 10 10 11 10 11 12 10 10 10 11 11 11 10 10 9
17 15 14 14 19 22 23 22 21 20 20 20 22 23 24 24 22 20 18 17 15 15 14 13 11 11 10 10 11 12 12 12 11 10 11 12 12 12 11 10 10 9
10 13 15 19 21 21 22 23 23 22 21 21 22 23 23 23 22 19 17 16 15 15 14 13 12 12 11 10 11 13 13 11 10 11 13 14 13 12 10 9 9 6
13 17 19 21 21 21 23 25 24 22 20 20 21 21 22 21 20 19 18 16 16 15 14 13 13 13 11 10 12 15 13 11 12 14 14 14 13 11 10 9 8 5
18 19 20 21 22 22 24 25 24 21 20 20 20 21 20 20 20 20 19 18 17 15 14 13 13 13 12 11 14 16 14 13 14 14 13 14 14 12 11 9 7 5
19 19 18 20 21 21 22 24 24 23 22 22 21 21 21 21 22 21 19 18 17 15 14 15 15 13 12 14 16 16 15 14 14 13 13 16 15 13 12 10 8 7
19 18 17 18 18 18 19 23 25 24 23 23 23 23 23 23 23 22 20 18 17 16 15 16 16 14 14 14 15 15 15 14 13 14 17 18 16 14 12 11 10 9
19 18 17 18 16 12 10 16 23 25 24 24 24 23 23 23 23 22 21 19 18 17 17 17 17 15 14 14 14 14 15 15 15 17 20 19 17 15 13 12 12 11
16 18 18 17 16 13 9 9 17 23 24 23 23 22 22 22 21 20 19 18 17 17 18 18 17 16 14 14 14 14 14 15 16 20 21 19 17 16 14 14 13 13
Wind_Direction
214 216 216 218 221 223 224 227 228 229 233 232 225 222 222 224 224 222 224 229 232 235 236 238 240 235 229 230 234 242 250 252 243 235 239 243 248 252 255 256 259 268
213 215 217 219 221 224 226 228 231 233 235 231 226 224 225 229 230 226 226 230 233 237 238 238 237 233 229 233 241 243 240 240 240 243 253 259 257 250 249 250 256 267
212 215 217 220 223 225 228 230 233 239 237 230 227 227 227 233 236 232 230 232 235 239 239 237 236 233 228 232 241 239 234 242 250 250 258 264 259 250 248 257 273 282
212 215 219 221 224 226 230 232 235 238 233 227 229 232 231 235 239 237 235 234 236 239 238 236 235 232 230 233 238 235 235 245 246 238 245 254 254 255 262 274 284 285
214 216 219 221 224 226 229 230 232 234 231 226 230 234 233 235 238 238 239 237 236 237 236 236 234 231 233 235 234 233 238 242 234 226 233 241 246 256 268 281 288 284
214 216 219 221 223 226 227 229 229 230 230 229 231 236 236 236 238 238 238 237 236 235 233 234 235 232 233 234 233 234 235 231 222 216 220 228 239 250 262 272 275 273
214 216 218 220 222 226 227 228 228 229 230 230 234 239 240 241 240 236 232 232 233 232 230 231 233 232 232 232 231 230 227 222 218 215 216 227 239 246 247 249 250 253
215 216 217 218 221 224 226 226 227 229 229 229 234 240 243 243 236 227 225 226 225 223 224 225 228 229 230 231 230 228 225 223 221 222 226 233 239 241 239 238 241 248
215 216 216 218 220 222 224 224 224 227 227 230 236 240 238 232 229 230 227 221 217 216 216 217 221 225 228 230 230 227 223 221 223 227 231 233 235 238 240 244 250 257
213 215 215 218 221 222 224 224 227 230 230 232 243 283 212 201 229 260 242 219 212 213 211 213 217 220 224 227 227 223 219 219 221 225 228 230 235 242 248 256 262 266
213 214 214 217 220 222 224 227 229 223 149 58 47 21 285 223 227 260 252 220 211 209 206 209 212 212 213 213 213 212 211 214 218 221 228 237 247 255 262 268 271 272
214 213 214 217 219 220 223 223 214 153 90 58 24 226 230 222 218 234 240 217 207 202 198 199 201 200 198 194 195 200 204 211 219 226 237 247 255 263 269 273 273 272
215 214 215 218 218 219 221 213 187 163 188 224 228 204 202 207 204 211 219 209 199 194 192 192 190 188 188 191 196 202 206 214 225 235 244 249 254 256 251 247 247 242
215 215 215 217 218 217 215 200 184 194 210 216 216 209 206 203 197 199 203 194 185 185 188 191 192 194 200 207 207 207 212 220 226 230 232 228 219 205 196 198 206 209
214 213 212 212 210 206 202 193 193 205 212 212 212 208 202 198 193 190 190 186 182 185 190 195 201 204 206 206 204 203 207 206 198 196 191 177 165 162 164 162 152 144
207 200 197 196 189 186 189 190 196 205 208 203 196 187 185 189 190 187 190 195 194 191 192 193 195 196 194 195 198 194 187 175 165 164 160 151 149 148 146 141 133 127
182 166 166 168 173 182 186 189 194 197 194 190 185 181 182 190 197 196 194 197 196 191 188 184 182 185 183 179 176 171 167 163 156 151 145 142 141 139 139 140 133 122
131 136 148 161 186 200 196 191 192 191 189 190 189 188 189 193 197 196 190 190 190 187 187 187 184 180 172 164 161 159 161 161 153 146 142 142 139 136 137 136 128 118
123 141 161 191 207 205 198 196 198 199 200 199 194 190 189 189 190 188 185 186 186 185 189 188 181 173 167 163 159 156 157 157 151 145 145 143 138 133 129 127 125 120
151 169 188 211 206 190 191 202 207 208 206 200 193 188 187 187 186 184 182 182 185 188 186 179 172 169 169 169 164 157 154 152 149 144 142 138 131 125 122 123 125 118
200 200 204 210 197 182 190 201 204 205 199 191 189 189 188 189 187 185 183 181 183 184 179 173 171 169 168 166 163 160 154 146 143 140 137 134 131 129 128 127 125 107
195 199 201 202 194 183 183 188 192 196 194 189 189 188 187 188 187 184 180 176 175 177 175 172 170 166 163 159 159 162 158 146 141 139 140 141 138 136 134 126 116 97
186 189 195 201 195 181 176 181 187 193 195 194 191 187 186 186 182 177 175 171 169 170 172 170 165 161 159 157 160 163 159 151 148 145 147 145 137 132 129 119 105 92
188 192 201 207 198 184 181 183 186 192 197 198 194 187 182 179 175 172 173 171 168 168 169 166 159 155 155 155 157 159 157 158 159 152 148 145 136 130 126 115 104 95
191 199 207 208 201 196 192 186 186 192 195 195 193 186 177 172 169 166 167 169 168 165 161 155 148 146 148 148 147 150 154 158 160 153 147 142 136 129 121 111 105 100
191 201 207 206 199 202 215 205 192 192 192 189 186 180 168 159 155 153 156 161 162 154 147 143 139 135 135 138 140 144 150 156 158 154 147 141 135 128 118 111 107 105
Height
794 795 797 798 800 800 801 802 803 804 804 805 806 807 808 809 811 812 813 814 815 815 816 816 817 818 818 818 819 820 820 821 821 821 821 821 821 821 821 821 821 821
791 793 795 796 798 799 800 801 802 803 803 804 805 806 807 809 810 811 812 813 813 814 814 815 816 816 816 817 817 818 819 819 820 820 820 820 820 820 820 821 821 820
790 792 793 795 796 797 799 800 801 802 802 803 804 805 807 808 809 809 810 811 812 812 813 813 814 815 815 815 816 817 817 818 818 818 819 819 819 820 820 820 820 819
787 789 790 792 794 796 798 799 800 800 801 802 803 804 805 806 807 808 809 810 810 811 811 812 813 813 814 814 814 815 816 816 816 817 817 817 817 818 818 818 818 818
783 786 787 789 791 793 795 796 797 798 799 800 801 802 803 804 805 806 807 808 808 809 810 811 812 812 812 813 814 814 814 814 815 815 815 815 816 816 816 816 816 816
780 782 784 786 788 790 792 792 794 796 797 799 800 800 801 802 803 804 805 806 806 807 808 809 810 811 811 812 812 813 813 813 813 813 814 814 814 815 815 815 815 815
777 779 781 783 785 787 789 790 792 794 795 797 798 798 799 799 800 801 802 803 804 805 807 808 808 809 810 811 811 812 812 812 812 812 813 813 813 813 813 813 813 813
774 776 778 780 782 784 786 787 790 792 793 795 795 796 797 798 799 799 800 801 802 803 804 805 806 807 809 810 810 811 811 811 812 811 812 811 811 812 811 812 812 812
771 773 776 778 780 781 783 786 788 790 791 793 794 795 796 797 798 799 799 799 799 800 801 803 805 806 807 808 809 809 810 810 811 810 810 810 810 810 810 810 811 811
768 771 773 776 777 779 782 784 787 789 790 790 791 795 797 798 800 801 800 798 797 798 799 801 803 804 805 806 807 808 809 809 809 809 809 809 809 809 809 809 809 809
766 769 771 773 775 778 780 783 786 787 789 790 792 797 799 797 799 801 800 798 797 797 798 800 801 802 803 804 805 806 807 807 808 808 808 809 809 808 808 808 808 808
764 767 769 771 774 777 779 783 784 785 788 792 793 794 794 791 793 797 798 797 795 795 796 798 799 800 801 802 804 805 805 806 806 807 808 808 808 807 807 807 807 807
762 764 767 770 772 775 779 781 782 783 787 790 789 787 787 787 790 793 795 794 793 793 794 796 797 799 800 802 804 804 804 805 805 806 806 807 806 806 806 806 806 806
759 762 765 768 771 774 777 779 780 783 785 785 785 784 785 786 788 791 792 792 792 792 793 795 796 798 800 802 803 803 804 804 805 805 805 805 805 805 805 805 806 806
757 760 763 766 769 772 775 776 777 780 781 781 782 783 784 786 786 788 789 790 791 792 793 794 795 796 798 800 801 801 802 803 804 804 804 804 804 804 805 805 805 805
754 758 762 765 768 770 772 773 774 776 777 778 780 782 783 784 785 786 787 788 790 791 792 794 796 797 797 798 799 800 801 802 803 803 804 804 804 804 805 805 805 805
754 759 763 766 768 768 769 769 771 774 776 778 780 782 783 783 784 785 786 788 789 790 791 793 795 796 795 796 798 799 800 801 802 803 804 804 804 804 805 805 805 805
757 762 766 768 768 768 767 768 770 773 775 777 778 779 781 782 784 785 786 787 789 789 791 792 793 794 795 796 797 798 800 801 802 803 803 804 804 804 804 804 804 805
758 760 762 763 764 766 768 769 770 772 773 775 776 777 779 780 783 784 785 787 788 789 790 791 793 794 795 797 798 799 800 801 802 802 803 803 804 804 804 804 805 805
756 755 754 756 760 766 769 768 769 770 771 773 774 776 778 780 781 782 784 786 787 789 790 791 793 795 796 797 798 799 800 801 802 802 803 803 803 803 804 804 805 806
753 751 751 754 760 765 766 766 767 768 770 772 773 775 777 778 779 781 783 785 787 788 790 791 793 795 796 797 798 800 801 802 802 803 803 803 804 804 805 805 806 807
750 750 752 755 759 762 763 765 767 767 769 771 772 773 775 776 778 780 782 784 786 788 789 791 793 794 796 797 798 799 801 801 802 803 803 804 805 805 806 807 807 807
751 752 753 756 759 762 763 765 766 767 768 770 771 772 773 774 776 778 780 782 785 787 788 790 792 793 795 796 797 798 800 801 802 803 804 805 806 807 807 808 808 808
753 753 753 756 759 762 763 764 765 767 768 768 770 770 771 773 775 777 779 781 783 786 787 789 791 792 794 795 796 797 798 800 801 802 804 805 806 807 808 808 808 808
752 752 752 754 758 762 765 765 765 766 767 768 768 769 770 772 774 776 779 781 783 785 787 789 790 792 793 795 796 797 798 799 800 801 803 805 806 807 808 808 808 809
749 749 751 753 756 760 764 767 766 765 765 766 767 768 769 772 776 779 781 782 783 785 787 789 791 792 794 795 796 797 798 798 800 801 802 804 805 806 807 808 809 809